This is the latest recevied weather packets stored in our database for station/object S54A-11. If no packets are shown the sender has not sent any weather packets the latest 10 day(s).
| Time | Temp. | Humidity | Pressure | Rain* | Wind** | Luminosity | Snow |
|---|---|---|---|---|---|---|---|
| 1788172233 | 40° C | 35% | 1016 hPa | - | - | - | - |
| 1788171333 | 38.33° C | 35% | 1016 hPa | - | - | - | - |
| 1788170433 | 38.89° C | 36% | 1016.1 hPa | - | - | - | - |
| 1788169532 | 39.44° C | 36% | 1016.3 hPa | - | - | - | - |
| 1788168632 | 37.78° C | 38% | 1016.5 hPa | - | - | - | - |
| 1788167732 | 36.67° C | 39% | 1016.5 hPa | - | - | - | - |
| 1788166832 | 36.67° C | 40% | 1016.7 hPa | - | - | - | - |
| 1788165932 | 36.11° C | 40% | 1016.7 hPa | - | - | - | - |
| 1788165032 | 35° C | 41% | 1016.7 hPa | - | - | - | - |
| 1788164132 | 33.33° C | 43% | 1016.7 hPa | - | - | - | - |
| 1788163232 | 32.22° C | 43% | 1016.5 hPa | - | - | - | - |
| 1788162332 | 31.11° C | 45% | 1016.5 hPa | - | - | - | - |
| 1788161432 | 29.44° C | 47% | 1016.5 hPa | - | - | - | - |
| 1788160532 | 27.78° C | 48% | 1016.4 hPa | - | - | - | - |
| 1788159632 | 27.22° C | 50% | 1016.5 hPa | - | - | - | - |
| 1788158732 | 25.56° C | 52% | 1016.4 hPa | - | - | - | - |
| 1788157832 | 25° C | 52% | 1016.5 hPa | - | - | - | - |
| 1788156931 | 23.89° C | 52% | 1016.6 hPa | - | - | - | - |
| 1788156031 | 22.78° C | 53% | 1016.5 hPa | - | - | - | - |
| 1788155131 | 20.56° C | 55% | 1016.5 hPa | - | - | - | - |
| 1788154231 | 15.56° C | 60% | 1016.5 hPa | - | - | - | - |
| 1788153331 | 15° C | 61% | 1016.5 hPa | - | - | - | - |
| 1788152430 | 15° C | 61% | 1016.4 hPa | - | - | - | - |
| 1788151530 | 15° C | 61% | 1016.5 hPa | - | - | - | - |
| 1788150630 | 14.44° C | 62% | 1016.5 hPa | - | - | - | - |
* Rain since midnight (hover to see other rain measurements)
** Current wind speed in m/s (hover to see current wind gust speed)